RH
26 25 26 24 31 23 15 10 7 7 8 12 12 9 8 8 12 23 45 41 38 27 21 17 18 17 16 32 25 22 15 12 12 10 11 19 26 31 29 32 29 36 38 48 53 58 57 63 69
24 25 29 31 31 19 12 10 8 9 10 10 10 10 10 15 22 28 31 35 34 29 17 16 21 18 17 30 21 19 14 11 12 9 11 17 24 27 31 33 34 38 36 48 52 52 53 59 66
23 28 31 36 29 23 16 14 12 11 10 11 11 14 13 13 19 30 34 17 22 22 17 19 23 18 20 28 19 16 13 12 12 9 11 14 19 26 30 34 34 39 40 51 54 55 57 59 66
14 32 31 31 26 21 19 17 14 16 17 16 16 17 18 19 20 36 19 15 18 22 21 27 25 19 23 22 18 16 12 13 12 10 10 13 15 19 25 31 32 38 41 50 56 58 64 66 71
10 29 34 30 25 22 19 18 20 21 21 21 23 23 24 27 34 46 30 13 18 20 25 34 27 19 25 19 19 16 13 13 12 10 10 12 14 16 20 26 27 35 42 52 58 63 68 71 70
27 29 25 20 17 15 14 19 20 21 20 22 23 26 28 31 36 44 32 14 17 17 27 34 26 21 24 20 19 15 14 14 13 11 10 12 15 15 17 21 25 36 39 52 61 65 70 68 66
22 26 21 18 16 15 13 14 15 19 21 20 26 29 30 32 36 42 39 30 12 16 24 28 27 24 23 20 20 16 15 14 14 12 10 11 13 23 20 19 25 31 40 48 62 65 63 66 69
20 20 18 17 17 13 14 16 17 21 26 26 27 27 28 34 35 40 42 33 24 14 18 37 32 23 22 21 21 18 16 15 14 14 11 10 14 20 17 19 26 28 35 46 57 60 58 70 72
7 16 14 10 10 11 15 18 20 27 26 16 16 15 20 27 24 27 38 33 29 21 16 24 42 26 23 21 22 19 17 16 15 15 13 10 10 16 21 19 22 26 34 43 52 57 64 66 68
12 13 12 10 10 10 14 16 16 14 8 10 10 10 12 17 18 12 8 11 25 25 30 24 44 48 29 22 22 21 18 17 16 16 14 13 10 12 20 19 22 26 32 37 44 54 57 63 68
15 13 12 11 11 11 11 8 10 8 4 4 4 3 3 4 6 6 5 3 2 13 24 38 29 56 63 26 22 22 20 18 17 16 15 15 13 10 19 19 22 24 28 31 36 44 52 63 70
15 16 18 15 14 13 7 12 12 16 10 10 7 7 7 7 12 16 19 19 8 3 4 19 41 30 67 71 29 23 21 19 18 17 17 16 15 11 21 32 35 28 28 34 35 40 53 60 68
15 16 16 16 12 16 18 20 20 18 17 20 20 20 20 20 21 23 22 21 20 10 3 2 31 40 43 75 64 25 23 21 19 18 18 17 17 17 24 48 38 36 29 33 39 40 48 59 68
13 20 8 6 19 21 20 20 19 16 19 19 18 19 21 22 24 26 26 28 29 27 9 4 6 47 31 52 73 42 26 23 20 19 19 18 18 17 25 32 32 26 23 29 38 40 47 62 66
23 14 19 21 19 18 20 19 19 18 17 20 24 23 22 22 23 24 25 26 28 29 29 9 11 19 51 32 66 71 30 26 23 21 20 19 19 18 20 30 25 25 25 22 30 35 42 54 57
22 26 24 17 15 16 19 20 18 18 21 24 25 27 30 32 35 35 33 33 35 36 35 33 15 15 32 62 56 78 56 34 24 23 21 20 20 20 18 23 22 19 13 19 20 23 29 40 48
20 20 17 14 15 17 19 20 19 20 22 26 33 42 40 35 27 20 21 28 19 38 38 34 32 18 18 41 51 69 82 50 26 24 23 22 21 21 20 21 25 18 15 13 13 16 25 28 27
19 18 16 18 19 20 23 22 22 22 24 35 43 40 33 31 38 39 37 34 30 25 28 32 34 34 27 26 45 44 79 75 43 25 25 24 23 22 22 21 23 23 22 17 15 14 20 26 19
28 22 23 25 26 24 26 24 22 24 33 43 44 37 35 41 37 35 35 34 34 33 29 25 27 34 37 31 28 38 39 92 63 33 26 26 26 24 22 22 22 24 24 22 19 18 19 20 23
28 30 30 29 28 25 25 24 26 27 48 46 50 47 49 42 38 37 37 41 42 42 39 31 29 25 19 35 37 59 52 76 82 45 29 26 27 27 26 23 22 24 24 25 24 24 24 25 26
29 31 30 33 30 30 29 25 21 37 54 54 68 57 48 43 38 41 46 47 54 54 52 45 35 36 26 12 38 56 46 69 98 69 35 31 25 30 30 27 23 24 24 23 26 26 27 28 28
32 34 33 36 40 38 36 42 36 37 75 73 56 52 47 41 42 50 55 55 59 60 60 52 31 43 45 25 23 35 47 65 97 86 44 37 28 28 31 31 29 25 24 24 24 26 25 29 27
42 42 47 46 47 46 44 34 53 62 71 60 56 48 43 48 55 64 64 69 66 61 57 56 33 46 50 38 30 28 70 62 77 98 69 48 38 29 32 36 34 32 27 24 25 26 26 26 28
50 50 50 45 39 47 39 50 95 89 87 68 50 46 55 63 68 72 75 76 75 70 63 64 66 44 58 38 17 22 67 55 98 92 100 54 34 30 34 44 45 35 35 32 34 32 30 32 33
49 53 45 40 43 40 32 38 92 98 88 60 64 60 68 73 78 84 87 88 79 86 81 63 53 71 38 38 18 17 44 93 99 98 99 74 35 32 36 48 52 37 40 43 48 48 42 45 45
46 47 43 48 54 49 41 48 98 100 71 60 60 68 73 76 79 92 94 96 100 93 90 82 76 99 67 53 30 13 34 89 97 82 99 85 50 43 40 59 58 38 54 54 61 60 59 58 58
53 47 52 60 52 60 51 93 98 97 60 54 60 72 75 78 83 96 96 100 98 94 96 97 97 100 94 98 66 30 61 82 87 90 74 99 79 46 72 75 53 57 76 77 75 70 80 86 85
50 48 52 62 81 61 38 84 98 75 54 63 68 73 76 83 85 95 100 96 97 95 94 97 97 99 100 100 98 33 57 88 96 96 100 98 97 56 95 87 85 74 54 58 62 56 52 52 62
62 62 74 76 73 72 79 94 92 68 65 74 76 79 81 89 89 98 99 97 95 96 97 97 98 98 99 100 96 41 56 75 88 87 97 97 100 75 83 81 89 85 84 60 58 50 52 51 52
52 51 63 66 58 83 93 95 88 72 76 76 77 82 89 96 96 98 99 96 97 96 97 97 99 99 99 100 100 96 96 98 100 100 97 100 86 94 82 72 84 74 58 62 58 56 50 57 62
Wind_Speed
13 12 11 9 5 8 12 17 12 2 2 5 2 6 6 5 4 3 7 16 16 19 14 16 15 14 12 9 8 9 10 10 8 6 5 6 5 5 3 3 2 2 4 6 6 5 6 6 6
12 12 8 2 11 14 18 13 3 4 3 8 12 7 6 1 7 10 20 20 13 18 11 16 14 15 13 11 9 9 10 10 8 7 6 6 6 5 4 4 3 4 5 6 6 6 6 6 6
10 8 5 7 14 19 18 10 4 6 12 10 4 4 7 8 12 13 24 19 11 14 13 16 16 15 14 12 10 9 10 10 9 8 7 7 8 7 7 6 6 5 6 6 7 6 7 7 7
8 6 7 12 17 18 20 15 6 4 8 12 9 9 6 10 14 19 26 17 12 14 15 15 17 17 16 14 12 10 10 11 10 8 8 8 9 9 9 8 8 7 7 7 7 7 7 7 7
3 2 11 19 20 17 17 18 15 11 13 13 10 10 11 13 15 15 21 16 17 15 15 15 19 19 18 15 13 11 11 11 10 10 9 9 10 10 10 10 9 8 8 8 8 7 8 7 6
3 7 13 17 19 18 12 6 15 13 12 11 11 10 5 16 21 19 23 18 19 18 18 18 22 21 20 17 15 14 13 13 11 11 10 10 11 12 12 11 11 10 10 8 8 8 8 7 7
6 7 16 21 23 21 19 19 7 8 10 10 11 8 8 22 27 22 22 20 22 21 19 21 22 23 22 20 18 17 16 14 13 12 11 11 12 13 13 13 13 12 11 10 10 10 9 8 8
9 10 15 16 19 18 14 5 7 8 11 16 10 8 12 17 28 27 23 26 24 27 23 22 24 25 25 23 20 19 18 16 15 14 13 13 14 14 14 15 14 14 13 13 12 11 10 9 9
7 10 11 13 16 16 16 16 11 12 16 18 15 18 16 25 34 38 25 19 25 27 28 26 27 28 29 27 23 22 20 19 17 16 15 14 15 15 15 15 15 15 15 14 14 13 11 10 9
10 12 16 16 19 18 19 24 26 28 30 26 24 24 23 29 36 40 33 28 30 26 22 30 26 33 32 31 27 25 23 22 20 18 16 15 15 16 16 16 16 17 17 16 16 14 13 11 10
14 20 16 18 21 24 28 29 26 30 33 31 34 35 36 36 37 38 37 32 31 29 32 24 32 30 33 35 33 29 26 25 23 20 18 17 16 17 18 18 17 17 17 17 16 15 14 13 13
16 18 17 19 21 23 25 24 25 24 31 29 30 30 31 32 30 27 21 23 27 31 34 33 29 38 35 37 36 34 31 28 26 23 21 20 18 18 19 16 17 17 17 17 16 16 15 16 14
19 18 17 19 23 23 21 21 23 24 22 22 23 24 28 28 28 25 23 25 27 33 35 37 30 37 40 40 39 40 35 33 31 28 24 22 20 19 18 17 18 18 18 19 17 17 17 17 15
13 18 22 23 21 18 17 16 20 16 16 17 21 23 23 26 28 27 26 26 27 33 35 37 39 33 44 45 42 43 42 39 35 32 27 25 22 20 20 20 20 19 19 20 18 18 17 18 17
15 21 19 16 11 14 13 17 14 16 20 19 22 23 25 26 26 29 30 32 33 33 35 37 40 40 37 46 45 45 47 44 40 37 28 27 25 23 22 21 22 20 21 21 20 20 18 18 17
16 13 13 3 10 15 19 19 16 19 21 22 19 19 18 17 19 23 27 29 26 26 31 35 40 43 42 41 47 44 49 49 46 41 33 31 28 26 26 23 22 20 22 21 20 19 17 17 17
15 14 12 18 15 17 17 27 23 18 21 21 15 14 18 23 28 32 34 36 38 33 27 28 34 41 44 45 47 43 45 52 52 45 39 35 33 30 27 25 23 22 21 21 20 18 17 16 16
10 14 16 20 16 20 23 27 20 21 21 19 22 25 29 31 37 35 34 37 37 40 43 40 35 37 41 46 43 48 42 51 55 51 44 40 37 32 30 28 25 24 22 21 19 18 17 15 15
13 16 19 19 17 21 20 25 28 23 19 19 27 34 31 38 50 46 42 42 40 40 43 50 48 45 42 41 46 49 51 43 55 59 49 44 40 35 33 31 28 27 23 20 19 17 17 16 15
15 18 20 19 17 18 21 30 26 23 13 19 27 34 33 43 53 52 51 42 37 38 45 47 53 53 57 48 46 39 48 47 49 61 52 49 44 40 37 34 30 29 25 23 22 20 19 18 17
17 20 20 23 19 20 23 28 18 6 9 19 22 29 37 48 57 52 49 43 34 32 36 46 52 51 55 56 55 49 53 49 43 57 57 54 49 45 39 36 34 32 30 26 24 22 22 20 19
21 16 17 18 20 22 17 23 25 18 12 20 27 34 44 54 50 46 42 42 33 28 32 36 41 59 53 51 59 58 60 52 42 51 59 57 54 47 42 40 38 35 33 30 28 26 24 24 22
20 15 17 21 24 25 24 20 5 5 15 25 30 39 46 46 46 43 42 36 31 31 30 33 36 48 58 53 54 65 52 55 48 45 58 59 54 50 45 43 42 38 34 32 31 29 28 27 25
14 18 19 24 28 19 25 5 4 9 17 24 34 39 43 43 43 41 43 39 34 31 32 29 32 40 50 47 49 58 60 60 50 49 56 63 58 56 47 44 44 41 36 34 32 31 30 29 27
14 14 12 7 8 11 1 21 1 4 16 26 34 41 39 40 41 43 44 41 35 31 30 32 38 37 45 39 44 52 64 60 56 51 59 65 61 60 50 43 43 42 37 35 33 32 30 29 29
10 11 11 8 9 16 28 7 6 5 16 25 31 36 35 36 37 39 40 39 36 34 32 33 37 32 35 39 41 47 64 68 50 78 53 76 64 58 48 41 41 42 38 35 32 31 30 31 32
2 9 8 14 22 18 13 2 5 14 17 24 31 32 33 34 35 36 36 36 30 28 26 23 21 28 24 30 29 42 60 58 53 48 32 64 58 57 43 38 38 37 35 34 31 33 32 33 34
18 10 9 7 4 8 11 3 4 11 21 26 29 31 32 31 31 30 32 31 20 20 10 3 9 20 24 26 30 37 54 41 48 58 66 26 44 51 49 39 30 30 32 33 31 32 33 35 37
13 16 7 6 10 4 9 2 6 16 18 23 26 27 29 30 29 29 28 28 22 14 17 17 21 19 14 21 25 35 37 43 35 40 36 55 37 41 41 34 28 27 30 27 30 37 38 39 39
6 5 3 5 6 9 12 4 12 13 15 19 22 22 23 25 26 27 29 25 20 18 22 22 38 24 33 19 10 12 18 20 23 31 33 43 40 47 49 40 29 22 25 33 36 35 41 43 43
Wind_Direction
287 293 295 314 265 244 270 267 276 35 319 206 302 321 302 316 305 53 242 267 258 262 273 231 206 223 227 239 263 289 306 304 286 255 196 177 189 184 177 171 210 174 161 174 173 183 183 189 208
284 286 291 234 249 266 265 305 48 121 177 268 293 330 334 315 225 240 259 245 258 264 246 218 202 216 223 235 253 279 295 291 280 258 212 189 196 195 184 189 209 214 199 188 187 193 195 200 209
284 278 259 246 249 252 269 341 328 343 262 302 53 328 330 237 290 254 254 260 245 265 247 213 206 211 219 230 248 271 284 281 274 256 225 205 206 201 200 204 218 223 217 199 205 196 199 199 210
283 340 281 246 255 266 283 285 326 315 316 323 308 294 307 311 273 264 261 276 268 290 248 215 210 211 216 223 241 259 265 271 268 254 234 218 214 212 205 208 218 223 221 216 215 206 199 198 204
299 173 256 265 271 272 272 269 282 286 290 283 299 283 290 292 261 258 277 267 266 278 247 225 216 208 215 221 237 247 252 257 261 254 239 226 221 214 212 208 214 217 217 220 218 205 200 199 210
247 262 273 272 277 287 312 299 277 288 287 289 297 289 262 266 261 268 280 265 255 272 246 233 219 213 214 221 231 235 241 247 251 252 244 230 222 216 213 214 210 212 216 217 218 212 209 207 221
264 244 267 278 290 297 301 297 300 270 284 291 293 277 252 280 280 281 271 268 256 258 264 231 225 219 218 224 230 233 236 241 244 246 243 236 230 222 213 217 213 211 213 213 217 217 223 217 221
252 262 270 271 280 280 303 312 278 287 261 262 299 296 252 258 300 282 270 259 262 251 250 250 232 227 223 226 232 238 238 236 239 241 242 238 234 227 220 218 214 213 215 214 216 221 226 223 236
273 264 265 273 284 293 291 286 236 251 275 296 295 287 278 253 278 278 273 264 256 252 251 247 243 228 230 230 230 236 239 238 238 238 239 237 238 234 226 225 216 217 220 217 219 221 223 227 238
264 256 263 275 285 293 275 275 273 278 284 283 281 271 259 250 262 271 277 267 253 253 259 259 240 240 233 233 231 234 237 236 238 240 238 239 235 234 230 227 222 220 225 223 221 224 225 229 235
263 261 273 273 284 275 276 280 285 283 286 291 288 288 286 279 276 277 280 276 267 255 255 258 257 239 238 234 234 232 236 236 236 236 237 235 232 230 229 225 224 225 228 231 227 226 227 234 233
265 270 276 278 277 274 283 286 287 288 295 301 297 295 288 286 283 289 290 279 270 257 252 248 253 249 235 240 238 232 234 236 235 235 236 236 231 229 227 230 225 228 229 231 231 227 225 234 241
274 282 277 271 281 285 288 289 297 296 302 300 305 304 304 304 297 293 280 270 260 255 248 249 235 252 241 236 235 236 233 234 233 234 233 235 233 226 229 229 233 232 226 229 227 226 226 231 242
262 271 281 288 284 288 288 286 288 320 316 302 299 294 296 295 296 299 293 287 279 274 253 244 243 229 248 237 231 235 235 234 232 233 229 232 233 231 224 227 232 229 228 230 224 228 229 231 236
269 288 306 294 273 272 284 295 299 302 304 302 305 301 299 299 301 304 306 301 298 287 286 249 242 236 237 245 230 232 235 234 232 233 226 229 230 231 225 225 229 226 228 228 226 224 227 233 238
282 281 281 178 315 291 294 291 301 304 297 302 309 311 304 291 277 268 268 268 261 264 279 284 249 238 229 236 246 226 230 235 233 231 229 227 229 228 227 222 227 227 226 227 228 228 224 229 241
255 249 247 293 297 290 287 292 298 294 301 299 281 268 267 269 269 274 275 267 275 260 255 252 266 250 234 229 241 238 231 231 231 228 229 227 225 227 227 226 223 223 225 225 227 227 225 229 237
306 279 286 288 295 288 291 288 292 293 292 263 261 273 298 303 312 299 284 274 267 270 263 249 241 244 249 226 230 242 232 230 234 228 225 226 226 223 226 227 224 221 219 217 220 223 224 226 232
278 281 280 285 293 290 287 292 298 294 255 255 268 278 288 315 316 309 300 290 277 257 264 263 247 238 240 230 226 237 233 231 228 231 225 224 226 224 223 226 226 224 221 217 220 220 222 225 229
272 276 278 285 288 288 293 292 299 290 220 251 269 281 302 313 316 311 304 297 284 264 253 257 255 245 240 226 221 231 234 228 227 229 226 226 225 225 224 225 227 228 225 219 218 219 220 224 227
271 275 283 288 291 290 295 293 295 193 244 263 270 290 306 316 313 309 306 305 293 264 252 253 249 249 247 244 227 219 225 221 226 228 227 228 223 224 225 227 227 224 226 224 223 223 226 231 232
275 281 283 285 296 293 302 284 292 261 218 266 279 298 313 316 313 315 314 306 291 266 258 253 254 246 240 243 234 225 221 215 222 225 226 229 224 224 226 228 229 226 226 226 226 225 229 231 237
269 277 282 284 283 288 292 282 313 296 270 287 312 324 319 318 325 327 322 312 294 281 272 264 261 248 243 238 237 229 224 219 216 223 229 226 225 225 225 229 229 228 227 229 230 230 231 236 239
263 288 292 281 272 259 274 323 325 291 297 322 323 322 325 332 332 329 323 315 307 294 278 279 269 254 245 243 239 232 218 218 219 214 226 223 223 225 224 227 230 228 228 231 234 237 237 240 243
249 278 297 283 293 275 9 313 270 333 301 333 331 329 336 337 337 332 330 331 326 309 287 287 273 261 245 235 232 228 215 211 211 214 226 223 219 226 224 226 227 224 226 229 233 237 238 242 245
238 264 272 297 304 300 307 291 151 275 321 333 330 336 338 341 341 338 341 338 335 321 304 285 268 261 241 236 227 229 211 215 207 211 215 221 214 223 222 224 219 220 222 227 233 236 241 243 246
311 226 279 290 289 278 259 155 191 272 320 332 341 345 348 346 346 345 348 350 337 320 299 266 240 238 232 234 221 225 208 217 224 215 237 187 208 213 210 213 211 215 222 229 235 240 242 246 252
236 260 287 275 279 292 289 235 246 288 332 347 350 352 354 353 350 350 355 352 350 0 346 174 197 180 205 208 212 210 210 219 235 214 227 205 191 202 190 184 198 215 224 230 235 246 249 251 251
215 236 245 270 265 285 301 104 290 317 341 352 356 356 356 1 2 1 1 1 358 17 64 86 84 80 124 156 203 199 224 231 245 228 249 233 204 209 183 194 204 219 223 234 245 246 255 260 256
236 259 276 270 273 292 305 286 290 316 346 358 358 1 1 7 14 14 13 13 18 31 59 50 83 97 93 102 187 163 213 217 243 241 232 211 242 234 197 204 219 238 236 257 261 262 255 254 256